Location: Gittelde
(51.7985°N, 10.1863°E)
Time: 22:33:49
(UTC+00:00)

Daily predictions for brighter satellites

Satellite Brightness Start Highest point End
(mag) Time Altitude Azimuth Time Altitude Azimuth Time Altitude Azimuth
HJ-1C 3.9 17:42:31 10° SE 17:45:36 39° ENE 17:48:44 10° N
Cosmos 2233 Rocket 4.3 17:40:35 10° SSW 17:46:48 76° WNW 17:53:00 10° N
COSMO-SKYMED 1 2.7 17:44:21 10° NNE 17:48:43 84° WNW 17:53:04 10° SSW
Nadezhda 4 Rocket 4.2 17:45:34 10° N 17:51:31 49° ENE 17:57:26 10° SSE
Cosmos 1689 Rocket 3.3 17:49:42 10° N 17:52:36 47° WNW 17:55:28 10° SSW
Ariane Rocket 3.8 17:49:47 10° ESE 17:54:13 32° ENE 17:58:41 10° N
H-2A R/B 2.1 17:50:05 10° SSE 17:55:01 60° ENE 18:00:07 10° N
SL-08 RB Rocket 4.4 17:52:03 10° SE 17:56:09 34° ENE 18:00:14 10° N
SJ 16-02 3.7 17:52:56 10° WSW 17:56:40 27° NW 18:00:26 10° N
OBJECT-B 3.0 17:55:53 10° ENE 17:56:55 11° ENE 17:57:57 10° NE
USA 116 3.8 17:55:26 10° NNE 17:58:57 48° E 18:02:53 10° S
Exosat Rocket 4.4 17:54:48 10° SSE 17:59:07 26° ESE 18:03:13 10° NE
Cosmos 2263 Rocket 2.9 17:54:29 10° SW 17:59:58 57° NW 18:05:31 10° NNE
COSMOS 2406 4.0 17:55:38 10° NNW 18:00:51 35° NE 18:05:51 11° ESE
KORONAS-FOTON 4.5 17:57:36 10° N 18:01:16 36° ENE 18:04:54 10° SE
Cosmos 1707 2.9 18:00:10 10° NNW 18:04:01 74° W 18:07:50 10° S
Cosmos 1844 Rocket 2.9 17:59:11 10° S 18:04:26 45° ESE 18:09:46 10° NE
Cosmos 1626 3.6 18:02:39 10° NNE 18:05:23 19° ENE 18:07:28 13° ESE
NOSS 3-2 (C) 4.1 17:58:42 10° NW 18:06:03 89° SW 18:14:27 10° SE
Cosmos 372 Rocket 4.0 18:01:02 10° SSW 18:06:16 80° ESE 18:11:30 10° NNE
Cosmos 2278 Rocket 3.9 18:10:00 11° E 18:10:00 11° E 18:11:08 10° ENE
ATLAS CENTAUR R/B 3.7 18:08:39 10° NW 18:10:27 13° NNW 18:12:14 10° NNE
Meteor 2-5 Rocket 4.2 18:06:22 10° N 18:11:45 42° ENE 18:17:11 10° SE
Cosmos 1844 4.0 18:06:35 10° S 18:11:54 43° ESE 18:17:11 10° NE
ISS -3.7 18:08:46 10° WSW 18:12:08 68° SSE 18:14:49 15° E
Cosmos 2034 Rocket 4.1 18:06:08 10° SSE 18:12:17 54° E 18:18:25 10° NNE
NOSS 5 (C) 4.3 18:09:40 10° NW 18:12:42 69° NE 18:15:44 13° SE
NOSS 3-4 (A) 4.3 18:08:40 10° SSE 18:13:23 25° ESE 18:18:22 10° ENE
NOSS 3-4 (C) 4.3 18:08:48 10° SSE 18:13:31 25° ESE 18:18:28 10° ENE
USA 186 2.5 18:11:03 10° SE 18:13:59 34° ENE 18:17:01 10° N
Lacrosse 4 Rocket 3.0 18:11:00 10° NNW 18:14:05 20° NE 18:16:33 13° ENE
Meteor 1-24 Rocket 4.4 18:09:13 10° N 18:14:18 35° ENE 18:19:25 10° SE
Meteor 1-12 Rocket 4.3 18:09:47 10° S 18:15:38 77° E 18:21:25 10° NNE
Cosmos 1300 Rocket 3.5 18:16:27 10° S 18:20:52 84° E 18:25:20 10° NNE
Okean 1 Rocket 3.7 18:20:05 10° SSE 18:24:08 35° E 18:28:14 10° NNE
SL-14 R/B 4.3 18:21:07 10° N 18:24:33 27° ENE 18:26:28 19° ESE
CENTAUR R/B 3.3 18:17:09 10° NW 18:25:04 79° SW 18:33:51 10° SE
Sich 1 Rocket 4.3 18:20:48 10° SSW 18:25:16 60° WNW 18:29:50 10° N
NOSS 2-2 (E) 4.0 18:22:44 10° WSW 18:26:17 53° NW 18:30:34 10° NE
Cosmos 1833 Rocket 3.3 18:21:05 10° NNW 18:26:24 39° NE 18:30:12 18° ESE
Cosmos 2298 Rocket 4.0 18:22:13 10° SSW 18:27:33 82° ESE 18:32:55 10° NNE
Resurs 01 Rocket 3.1 18:25:52 17° E 18:27:34 21° ENE 18:30:51 10° NNE
CSL-04 Rocket 4.2 18:27:48 10° S 18:33:12 62° WSW 18:38:42 10° NNW
Cosmos 1025 Rocket 3.8 18:29:04 10° NNW 18:33:22 57° W 18:37:41 10° S
Cosmos 1766 3.8 18:31:31 10° SSE 18:35:07 35° E 18:38:45 10° NNE
Okean 2 Rocket 3.4 18:30:58 10° SSW 18:35:27 71° WNW 18:39:56 10° N
ATLAS 2AS CENTAUR R/B 3.4 18:28:43 10° S 18:35:53 39° ESE 18:43:01 10° NE
YAOGAN 1 4.3 18:31:56 10° SSW 18:35:55 35° W 18:39:56 10° NNW
NOSS 2-2 (D) 4.0 18:32:37 10° WSW 18:36:08 53° NW 18:40:20 10° NE
ATLAS 3B R/B 2.9 18:30:49 10° NW 18:37:33 62° NE 18:42:35 20° ESE
Cosmos 1634 Rocket 4.3 18:34:22 10° SSE 18:40:04 41° E 18:45:50 10° NNE
Abrixas rocket 3.6 18:38:51 10° WSW 18:41:10 23° SSW 18:42:11 19° S
CREW DRAGON DEMO-1 DEB 4.4 18:40:16 10° W 18:42:55 28° SSW 18:44:16 19° SSE
SPOT 3 Rocket 4.1 18:40:10 21° ESE 18:43:04 38° ENE 18:47:49 10° N
Cosmos 1536 Rocket 4.2 18:38:46 10° NNW 18:43:10 60° W 18:47:34 10° S
ARIANE 5 R/B 4.2 18:42:32 17° ENE 18:43:12 18° ENE 18:46:05 10° NNE
Cosmos 1125 Rocket 3.4 18:42:53 10° SSW 18:48:11 78° ESE 18:53:32 10° NNE
Cosmos 1892 Rocket 4.1 18:45:53 10° N 18:49:58 38° ENE 18:51:25 29° ESE
Resurs 1-3 4.0 18:48:54 27° ESE 18:50:48 42° ENE 18:54:58 10° N
SJ-6B 2.6 18:48:31 20° SSE 18:50:58 71° ENE 18:54:47 10° N
Cosmos 2195 Rocket 4.4 18:47:09 10° N 18:53:26 75° ENE 18:59:36 10° SSE
CZ-4 R/B 4.2 18:50:32 10° SW 18:53:42 21° W 18:56:53 10° NW
Cosmos 1627 Rocket 4.5 18:48:37 10° N 18:55:02 71° ENE 19:01:24 10° SSE
Cosmos 2150 Rocket 4.4 18:49:47 10° SSW 18:55:11 70° WNW 19:00:41 10° NNE
Cosmos 1674 3.3 18:51:47 10° NNW 18:55:35 59° W 18:59:21 10° S
Cosmos 2026 Rocket 4.0 18:49:54 10° N 18:56:17 70° ENE 19:02:16 12° SSE
Cosmos 1092 Rocket 3.9 18:50:18 10° N 18:56:30 86° ENE 19:02:44 10° S
Cosmos 2285 Rocket 3.9 18:52:39 10° SSW 18:58:56 76° ESE 19:05:20 10° NNE
MOS 1 Rocket 3.5 18:57:20 10° N 19:01:44 65° WNW 19:05:58 10° SSW
FREGAT/IRIS 2.2 19:04:41 73° SW 19:04:47 75° WSW 19:07:24 10° NNW
Cosmos 1428 Rocket 4.4 18:58:34 10° N 19:04:52 75° ENE 19:10:06 15° SSE
TSX-5 4.1 19:06:06 10° SSW 19:10:00 58° ESE 19:15:04 10° NE
ARGOS 4.1 19:06:03 10° S 19:11:12 47° W 19:16:25 10° NNW
CZ-2C R/B 2.6 19:06:21 10° NNE 19:11:57 74° ESE 19:17:33 10° S
Cosmos 1340 Rocket 2.8 19:15:12 53° ESE 19:15:34 56° E 19:19:32 10° NNE
Cosmos 2279 Rocket 4.2 19:12:59 23° SSE 19:16:34 48° E 19:22:33 10° NNE
Cosmos 1733 3.1 19:13:48 12° S 19:17:16 89° ESE 19:21:08 10° N
MOS 1 4.5 19:13:05 12° S 19:18:30 72° WSW 19:24:13 10° NNW
Lacrosse 5 rocket 2.0 19:15:04 10° WNW 19:19:23 51° NNE 19:20:43 38° ENE
Cosmos 2082 Rocket 2.4 19:14:01 10° NNW 19:19:32 53° NE 19:21:17 39° ESE
Cosmos 2098 Rocket 4.3 19:12:56 10° N 19:19:32 46° ENE 19:21:19 37° ESE
DMSP B5D2-2 4.0 19:16:29 10° NNE 19:21:49 77° ESE 19:27:05 10° S
BREEZE-M R/B 3.6 19:16:36 10° WSW 19:24:14 51° S 19:24:25 50° SSE
Spot 2 Rocket 4.2 19:25:14 34° ENE 19:25:38 35° ENE 19:30:11 10° N
OBJECT-B 1.0 19:28:48 70° W 19:28:48 70° W 19:32:02 10° NNW
Cosmos 1805 4.1 19:25:27 10° SSW 19:29:15 50° WNW 19:33:06 10° N
Cosmos 2142 Rocket 4.4 19:24:37 13° S 19:30:14 67° E 19:36:24 10° NNE
Ariane Rocket 3.9 19:28:09 10° S 19:33:02 47° W 19:37:57 10° NNW
H-2A R/B 4.3 19:30:54 10° SW 19:34:53 23° W 19:38:58 10° NW
Cosmos 1626 3.3 19:37:20 10° NNW 19:40:51 41° W 19:42:02 31° SW
Cosmos 1626 Rocket 4.2 19:36:55 10° N 19:40:32 42° NE 19:40:32 42° NE
Okean 1-7 Rocket 3.5 19:36:40 10° N 19:41:16 86° E 19:41:50 68° SSE
Terra 3.5 19:42:51 19° NE 19:42:51 19° NE 19:45:34 10° N
USA 186 4.5 19:42:34 11° SW 19:44:48 19° W 19:47:14 10° NW
COSMOS 2406 3.7 19:39:53 10° NW 19:45:26 55° WSW 19:47:55 31° S
Cosmos 407 Rocket 4.4 19:41:37 10° NNW 19:46:14 32° NE 19:46:14 32° NE
Cosmos 1455 Rocket 3.4 19:47:18 52° NE 19:47:18 52° NE 19:50:45 10° NNE
Cosmos 1844 Rocket 4.0 19:43:11 10° WSW 19:48:26 40° NW 19:53:44 10° NNE
SPOT 1/Viking Rocket 3.9 19:48:44 47° ENE 19:48:44 47° ENE 19:53:38 10° N
ISS -2.4 19:45:32 10° W 19:47:46 39° W 19:47:46 39° W
ATLAS CENTAUR R/B 3.6 19:48:57 10° NNW 19:50:50 13° NNE 19:51:16 13° NNE
Cosmos 2278 Rocket 2.1 19:51:32 59° SSE 19:52:13 64° ESE 19:57:50 10° NE
Lacrosse 4 Rocket 1.5 19:49:11 10° NW 19:52:52 70° NW 19:52:52 70° NW
Cosmos 909 Rocket 3.9 19:51:53 10° NW 19:58:31 90° WSW 19:59:55 58° SE
Cosmos 2266 Rocket 3.8 19:53:51 10° N 19:59:53 68° ENE 20:00:33 63° ESE
Meteor 2-19 Rocket 4.4 19:55:39 10° NNW 20:01:47 78° W 20:03:47 45° S
NOSS 3-4 (A) 3.4 19:57:34 10° SW 20:03:33 82° NW 20:10:04 10° NE
NOSS 3-4 (C) 3.4 19:57:40 10° SW 20:03:39 82° NW 20:10:11 10° NE
Resurs 01 Rocket 1.9 20:03:26 61° WSW 20:03:40 62° WSW 20:08:07 10° NNW
Cosmos 614 Rocket 4.2 20:02:03 10° NNW 20:06:44 55° NE 20:06:44 55° NE
CZ-2C R/B 3.9 20:05:59 10° NNE 20:09:58 66° NNW 20:09:58 66° NNW
Cosmos 1833 Rocket 3.4 20:05:04 10° NW 20:10:29 48° WSW 20:11:54 39° SSW
Cosmos 1470 4.3 20:12:29 31° N 20:12:29 31° N 20:14:39 10° N
Cosmos 2251 Rocket 3.6 20:08:01 10° NNW 20:13:24 71° WSW 20:13:44 69° SW
ERS-1 Rocket 3.6 20:17:40 45° NNE 20:17:40 45° NNE 20:21:34 10° N
IGS 5A 4.4 20:18:58 44° NNW 20:18:58 44° NNW 20:21:53 10° NNW
ARIANE 5 R/B 3.2 20:20:05 53° NW 20:20:05 53° NW 20:23:32 10° NNW
ATLAS 2AS CENTAUR R/B 3.1 20:18:33 10° SW 20:26:33 75° NW 20:34:23 10° NE
Landsat 7 4.2 20:27:59 61° NW 20:27:59 61° NW 20:32:02 10° NNW
ATLAS 3B R/B 3.4 20:21:43 10° NW 20:28:09 44° WSW 20:29:50 38° SSW
SPOT 5 3.6 20:33:48 52° NNE 20:33:48 52° NNE 20:38:02 10° N
Meteor 1-21 Rocket 4.4 20:27:14 10° NNW 20:33:00 70° W 20:33:15 69° WSW
Meteor 2-10 4.3 20:34:18 69° NNW 20:34:18 69° NNW 20:39:03 10° N
Cosmos 1655 Rocket 4.4 20:30:17 10° NNW 20:36:25 57° W 20:37:50 47° SW
Cosmos 1461 4.2 20:36:08 10° NW 20:39:30 45° NW 20:39:30 45° NW
Lacrosse 5 rocket 3.5 20:54:18 10° WNW 20:56:20 26° WNW 20:56:20 26° WNW
Cosmos 2082 Rocket 3.4 20:58:27 10° NW 21:03:08 33° W 21:03:08 33° W
COSMOS 2455 4.3 21:14:36 27° NE 21:14:36 27° NE 21:17:12 10° NE
Terra 3.5 21:21:44 30° NNW 21:21:44 30° NNW 21:24:11 10° NNW
ATLAS CENTAUR R/B 4.5 21:27:19 10° NNW 21:27:26 11° NNW 21:27:26 11° NNW
Cosmos 2278 Rocket 3.8 21:33:01 16° W 21:36:44 32° NW 21:41:47 10° NNE
USA 229 DEB 4.2 21:42:43 10° NW 21:49:03 59° N 21:49:03 59° N
USA 229 4.2 21:42:49 10° NW 21:49:09 59° N 21:49:09 59° N
NOSS 3-1 (A) 4.3 21:55:01 10° NW 22:01:22 59° NNE 22:01:22 59° NNE
Cosmos 2227 Rocket 4.2 22:07:52 10° NNW 22:11:41 21° NNE 22:11:41 21° NNE
ATLAS 2AS CENTAUR R/B 4.2 22:11:23 10° W 22:18:44 39° NNW 22:25:48 10° NE
Cosmos 1943 Rocket 4.2 22:24:03 22° NNE 22:24:03 22° NNE 22:25:57 10° NNE
CZ-4C R/B 3.9 22:45:17 32° NNE 22:45:17 32° NNE 22:49:37 10° NE
Cosmos 2297 Rocket 4.0 22:53:31 10° NNW 22:56:26 27° N 22:56:26 27° N
Cosmos 2369 Rocket 4.1 23:10:31 26° N 23:10:31 26° N 23:13:07 10° NNE
SL-16 R/B 3.7 23:50:37 37° NE 23:50:37 37° NE 23:55:12 10° N
CZ-2D R/B 4.4 23:50:29 10° NE 23:52:17 17° ENE 23:52:17 17° ENE
